QPF
0.03 0.03 0.04 0.05 0.05 0.03 0.02 0.02 0.02 0.03 0.03 0.04 0.04 0.04 0.03 0.03 0.03 0.03 0.03 0.03 0.03 0.04 0.04 0.04 0.04 0.02 0.02 0.01 0.01 0.02 0.01 0.01 0.02 0.02 0.01 0.02 0.02 0.02 0.02 0.01 0.01 0.01 0.01
0.03 0.04 0.04 0.04 0.04 0.03 0.03 0.03 0.03 0.03 0.04 0.04 0.04 0.04 0.04 0.03 0.03 0.03 0.02 0.02 0.02 0.03 0.04 0.04 0.03 0.02 0.02 0.02 0.02 0.01 0.01 0.01 0.01 0.02 0.02 0.02 0.02 0.02 0.01 0.01 0.01 0.01 0.00
0.02 0.02 0.04 0.04 0.04 0.03 0.03 0.03 0.03 0.04 0.04 0.03 0.03 0.03 0.04 0.03 0.03 0.02 0.02 0.02 0.02 0.02 0.03 0.04 0.03 0.03 0.02 0.02 0.03 0.03 0.02 0.02 0.01 0.02 0.02 0.01 0.02 0.02 0.01 0.01 0.01 0.01 0.00
0.01 0.01 0.02 0.02 0.02 0.02 0.02 0.02 0.02 0.02 0.02 0.02 0.01 0.01 0.02 0.02 0.02 0.02 0.02 0.02 0.02 0.02 0.03 0.04 0.03 0.03 0.02 0.02 0.02 0.03 0.03 0.03 0.02 0.02 0.02 0.02 0.01 0.02 0.02 0.01 0.01 0.01 0.01
0.01 0.01 0.01 0.01 0.01 0.01 0.01 0.01 0.01 0.01 0.01 0.01 0.00 0.01 0.01 0.01 0.01 0.02 0.02 0.01 0.01 0.02 0.02 0.03 0.02 0.02 0.01 0.01 0.01 0.02 0.02 0.03 0.03 0.03 0.03 0.02 0.02 0.02 0.02 0.01 0.01 0.01 0.01
0.01 0.01 0.01 0.01 0.01 0.01 0.01 0.01 0.01 0.01 0.01 0.01 0.01 0.01 0.01 0.01 0.01 0.01 0.01 0.01 0.01 0.01 0.02 0.03 0.02 0.02 0.01 0.01 0.01 0.01 0.02 0.03 0.03 0.04 0.04 0.03 0.02 0.02 0.02 0.02 0.02 0.02 0.02
0.02 0.01 0.01 0.00 0.01 0.01 0.01 0.01 0.01 0.01 0.01 0.01 0.01 0.01 0.01 0.01 0.00 0.01 0.01 0.01 0.01 0.01 0.01 0.02 0.02 0.02 0.01 0.01 0.01 0.01 0.01 0.02 0.03 0.04 0.04 0.03 0.02 0.02 0.02 0.02 0.02 0.02 0.02
0.02 0.01 0.01 0.01 0.01 0.01 0.01 0.01 0.01 0.01 0.01 0.00 0.01 0.00 0.00 0.00 0.00 0.01 0.01 0.01 0.01 0.01 0.01 0.02 0.02 0.02 0.01 0.01 0.01 0.01 0.01 0.01 0.01 0.02 0.02 0.02 0.02 0.02 0.02 0.03 0.02 0.02 0.01
0.02 0.01 0.01 0.01 0.01 0.01 0.01 0.01 0.01 0.01 0.01 0.01 0.01 0.01 0.00 0.00 0.00 0.00 0.01 0.01 0.01 0.01 0.01 0.02 0.03 0.02 0.01 0.01 0.01 0.01 0.01 0.01 0.01 0.01 0.02 0.02 0.02 0.02 0.03 0.02 0.02 0.02 0.02
0.02 0.02 0.01 0.01 0.01 0.01 0.01 0.01 0.01 0.01 0.01 0.01 0.01 0.01 0.00 0.00 0.01 0.01 0.01 0.01 0.01 0.01 0.01 0.03 0.04 0.03 0.02 0.01 0.01 0.01 0.01 0.01 0.00 0.01 0.01 0.01 0.01 0.01 0.01 0.02 0.02 0.03 0.04
0.02 0.02 0.02 0.02 0.01 0.01 0.01 0.01 0.02 0.01 0.01 0.01 0.01 0.01 0.01 0.01 0.01 0.01 0.01 0.01 0.01 0.01 0.02 0.02 0.03 0.04 0.03 0.02 0.02 0.01 0.01 0.01 0.01 0.01 0.01 0.01 0.01 0.01 0.01 0.01 0.02 0.03 0.04
0.02 0.02 0.02 0.02 0.01 0.01 0.01 0.02 0.02 0.02 0.02 0.02 0.01 0.01 0.01 0.01 0.01 0.01 0.01 0.02 0.02 0.02 0.02 0.02 0.03 0.04 0.04 0.04 0.02 0.01 0.02 0.02 0.01 0.01 0.02 0.02 0.01 0.01 0.01 0.01 0.02 0.03 0.04
0.01 0.02 0.02 0.02 0.02 0.02 0.02 0.02 0.02 0.02 0.02 0.02 0.02 0.01 0.01 0.01 0.01 0.01 0.01 0.02 0.03 0.03 0.02 0.03 0.03 0.04 0.04 0.04 0.03 0.02 0.02 0.01 0.01 0.01 0.01 0.01 0.01 0.01 0.02 0.02 0.03 0.03 0.04
0.02 0.02 0.02 0.02 0.02 0.02 0.02 0.02 0.02 0.01 0.01 0.02 0.02 0.02 0.02 0.01 0.01 0.01 0.01 0.02 0.03 0.03 0.03 0.03 0.03 0.03 0.03 0.03 0.03 0.02 0.01 0.01 0.01 0.01 0.01 0.01 0.01 0.01 0.01 0.02 0.02 0.02 0.03
0.02 0.02 0.02 0.01 0.01 0.01 0.02 0.02 0.02 0.02 0.02 0.02 0.02 0.02 0.02 0.02 0.01 0.02 0.02 0.02 0.02 0.02 0.02 0.02 0.02 0.02 0.02 0.02 0.02 0.02 0.01 0.01 0.01 0.01 0.01 0.01 0.01 0.01 0.01 0.01 0.02 0.02 0.02
0.02 0.02 0.01 0.01 0.01 0.01 0.01 0.01 0.01 0.02 0.02 0.02 0.02 0.02 0.02 0.02 0.02 0.02 0.02 0.02 0.02 0.01 0.01 0.01 0.01 0.01 0.01 0.01 0.01 0.01 0.01 0.01 0.01 0.01 0.01 0.01 0.01 0.01 0.01 0.01 0.02 0.02 0.02
0.01 0.01 0.01 0.01 0.00 0.00 0.01 0.01 0.01 0.01 0.02 0.02 0.02 0.02 0.02 0.02 0.02 0.02 0.02 0.02 0.02 0.01 0.01 0.01 0.01 0.01 0.01 0.01 0.01 0.01 0.01 0.00 0.01 0.01 0.01 0.01 0.01 0.01 0.02 0.02 0.02 0.02 0.02
0.01 0.01 0.01 0.01 0.01 0.01 0.01 0.01 0.01 0.02 0.02 0.02 0.02 0.02 0.02 0.02 0.02 0.02 0.01 0.01 0.01 0.01 0.01 0.01 0.01 0.01 0.01 0.01 0.01 0.01 0.01 0.01 0.01 0.01 0.01 0.01 0.01 0.01 0.02 0.02 0.02 0.02 0.02
0.01 0.01 0.01 0.00 0.00 0.01 0.01 0.01 0.01 0.01 0.02 0.02 0.02 0.02 0.02 0.02 0.02 0.01 0.01 0.01 0.01 0.01 0.01 0.01 0.01 0.01 0.01 0.01 0.01 0.01 0.01 0.01 0.01 0.01 0.01 0.01 0.01 0.02 0.02 0.02 0.02 0.02 0.03
0.01 0.01 0.01 0.01 0.00 0.00 0.01 0.01 0.01 0.01 0.01 0.01 0.02 0.02 0.01 0.01 0.02 0.01 0.01 0.01 0.01 0.01 0.01 0.01 0.01 0.01 0.01 0.01 0.01 0.01 0.01 0.01 0.01 0.01 0.01 0.01 0.01 0.02 0.02 0.02 0.02 0.03 0.03
0.01 0.01 0.01 0.01 0.01 0.01 0.01 0.01 0.01 0.01 0.01 0.01 0.01 0.01 0.01 0.02 0.01 0.01 0.01 0.01 0.01 0.01 0.01 0.01 0.01 0.01 0.00 0.01 0.01 0.01 0.01 0.01 0.01 0.01 0.01 0.01 0.02 0.02 0.02 0.02 0.03 0.02 0.03
0.01 0.01 0.01 0.01 0.01 0.01 0.01 0.01 0.01 0.01 0.02 0.01 0.01 0.01 0.01 0.01 0.01 0.01 0.01 0.01 0.01 0.01 0.01 0.01 0.01 0.01 0.01 0.01 0.01 0.01 0.01 0.01 0.01 0.01 0.01 0.01 0.02 0.02 0.02 0.02 0.03 0.03 0.02
0.01 0.01 0.01 0.01 0.01 0.01 0.01 0.01 0.01 0.01 0.01 0.01 0.01 0.01 0.01 0.01 0.01 0.01 0.01 0.01 0.01 0.01 0.01 0.01 0.01 0.01 0.01 0.01 0.01 0.01 0.01 0.01 0.01 0.01 0.01 0.02 0.02 0.02 0.02 0.02 0.02 0.03 0.02
0.01 0.01 0.01 0.01 0.01 0.00 0.01 0.01 0.01 0.01 0.01 0.01 0.01 0.01 0.01 0.01 0.01 0.01 0.01 0.01 0.01 0.01 0.01 0.01 0.01 0.01 0.01 0.01 0.01 0.01 0.01 0.01 0.01 0.01 0.02 0.02 0.02 0.02 0.02 0.02 0.02 0.02 0.02
0.01 0.01 0.01 0.01 0.01 0.01 0.01 0.01 0.01 0.01 0.01 0.01 0.01 0.01 0.01 0.01 0.01 0.01 0.01 0.01 0.01 0.00 0.00 0.01 0.01 0.01 0.01 0.01 0.01 0.01 0.01 0.01 0.01 0.01 0.02 0.02 0.02 0.02 0.02 0.02 0.02 0.02 0.02
0.01 0.01 0.01 0.01 0.01 0.01 0.01 0.01 0.01 0.01 0.01 0.01 0.01 0.01 0.01 0.01 0.01 0.01 0.01 0.01 0.01 0.01 0.00 0.01 0.01 0.01 0.01 0.01 0.01 0.01 0.01 0.01 0.01 0.01 0.02 0.02 0.02 0.02 0.02 0.02 0.02 0.02 0.02
MSLP
1008.42 1009.40 1010.37 1011.27 1012.09 1012.81 1013.46 1014.06 1014.64 1015.22 1015.81 1016.43 1017.04 1017.64 1018.21 1018.73 1019.20 1019.61 1019.99 1020.35 1020.71 1021.08 1021.45 1021.84 1022.23 1022.60 1022.95 1023.26 1023.53 1023.78 1024.01 1024.22 1024.42 1024.61 1024.80 1024.97 1025.10 1025.20 1025.25 1025.26 1025.24 1025.18 1025.11
1008.04 1009.01 1009.97 1010.88 1011.70 1012.42 1013.06 1013.65 1014.21 1014.77 1015.35 1015.95 1016.56 1017.16 1017.74 1018.29 1018.78 1019.23 1019.64 1020.03 1020.41 1020.79 1021.18 1021.57 1021.96 1022.34 1022.70 1023.04 1023.34 1023.62 1023.88 1024.12 1024.35 1024.56 1024.76 1024.93 1025.07 1025.16 1025.20 1025.20 1025.16 1025.09 1025.00
1007.66 1008.60 1009.55 1010.44 1011.25 1011.97 1012.61 1013.19 1013.73 1014.28 1014.84 1015.43 1016.03 1016.64 1017.22 1017.78 1018.30 1018.77 1019.21 1019.62 1020.02 1020.42 1020.81 1021.22 1021.62 1022.01 1022.39 1022.75 1023.09 1023.40 1023.69 1023.96 1024.22 1024.46 1024.67 1024.86 1025.00 1025.10 1025.15 1025.15 1025.11 1025.03 1024.93
1007.27 1008.16 1009.07 1009.94 1010.74 1011.45 1012.09 1012.66 1013.21 1013.75 1014.31 1014.89 1015.50 1016.10 1016.70 1017.27 1017.80 1018.30 1018.75 1019.18 1019.59 1019.99 1020.39 1020.80 1021.21 1021.61 1022.01 1022.39 1022.75 1023.08 1023.40 1023.71 1023.99 1024.25 1024.49 1024.70 1024.87 1024.99 1025.06 1025.08 1025.06 1025.00 1024.90
1006.86 1007.69 1008.55 1009.39 1010.17 1010.87 1011.51 1012.10 1012.66 1013.22 1013.79 1014.38 1015.00 1015.61 1016.22 1016.80 1017.34 1017.84 1018.30 1018.73 1019.13 1019.53 1019.93 1020.34 1020.75 1021.15 1021.56 1021.95 1022.32 1022.68 1023.02 1023.34 1023.64 1023.92 1024.18 1024.41 1024.61 1024.77 1024.88 1024.94 1024.96 1024.93 1024.87
1006.47 1007.21 1008.01 1008.81 1009.56 1010.27 1010.92 1011.53 1012.12 1012.71 1013.31 1013.93 1014.57 1015.20 1015.81 1016.39 1016.93 1017.42 1017.88 1018.29 1018.69 1019.08 1019.47 1019.86 1020.26 1020.66 1021.06 1021.45 1021.83 1022.19 1022.54 1022.87 1023.18 1023.47 1023.75 1024.00 1024.23 1024.43 1024.59 1024.71 1024.78 1024.82 1024.81
1006.12 1006.79 1007.52 1008.26 1008.99 1009.69 1010.36 1011.00 1011.64 1012.27 1012.92 1013.57 1014.22 1014.86 1015.48 1016.05 1016.58 1017.06 1017.49 1017.89 1018.26 1018.63 1019.00 1019.38 1019.77 1020.16 1020.56 1020.94 1021.31 1021.67 1022.01 1022.33 1022.64 1022.93 1023.22 1023.49 1023.74 1023.98 1024.19 1024.37 1024.52 1024.62 1024.68
1005.89 1006.47 1007.13 1007.82 1008.53 1009.23 1009.91 1010.59 1011.26 1011.94 1012.62 1013.30 1013.97 1014.61 1015.21 1015.77 1016.28 1016.73 1017.13 1017.51 1017.86 1018.21 1018.57 1018.94 1019.32 1019.70 1020.09 1020.47 1020.83 1021.17 1021.50 1021.80 1022.09 1022.38 1022.65 1022.93 1023.20 1023.47 1023.73 1023.97 1024.18 1024.36 1024.48
1005.82 1006.32 1006.92 1007.56 1008.24 1008.93 1009.62 1010.32 1011.02 1011.73 1012.43 1013.12 1013.78 1014.42 1015.00 1015.53 1016.00 1016.42 1016.80 1017.15 1017.49 1017.83 1018.18 1018.55 1018.93 1019.32 1019.71 1020.08 1020.44 1020.76 1021.07 1021.35 1021.62 1021.88 1022.14 1022.41 1022.68 1022.97 1023.26 1023.54 1023.81 1024.04 1024.23
1005.94 1006.39 1006.92 1007.52 1008.16 1008.83 1009.52 1010.23 1010.94 1011.64 1012.34 1013.02 1013.66 1014.26 1014.81 1015.30 1015.74 1016.13 1016.48 1016.82 1017.16 1017.51 1017.87 1018.25 1018.65 1019.05 1019.45 1019.82 1020.17 1020.49 1020.77 1021.03 1021.27 1021.50 1021.73 1021.98 1022.25 1022.54 1022.84 1023.14 1023.44 1023.71 1023.95
1006.28 1006.67 1007.15 1007.70 1008.31 1008.95 1009.62 1010.31 1011.00 1011.68 1012.34 1012.98 1013.58 1014.14 1014.64 1015.09 1015.49 1015.86 1016.21 1016.55 1016.90 1017.27 1017.66 1018.07 1018.49 1018.92 1019.33 1019.71 1020.06 1020.37 1020.63 1020.86 1021.07 1021.27 1021.47 1021.69 1021.94 1022.21 1022.50 1022.81 1023.12 1023.40 1023.66
1006.82 1007.17 1007.60 1008.11 1008.67 1009.28 1009.90 1010.54 1011.19 1011.82 1012.43 1013.00 1013.55 1014.04 1014.49 1014.91 1015.28 1015.64 1016.00 1016.35 1016.73 1017.13 1017.56 1018.00 1018.46 1018.91 1019.34 1019.73 1020.08 1020.37 1020.62 1020.83 1021.01 1021.18 1021.35 1021.54 1021.75 1022.00 1022.27 1022.56 1022.85 1023.13 1023.38
1007.52 1007.83 1008.23 1008.69 1009.21 1009.76 1010.33 1010.91 1011.48 1012.04 1012.57 1013.08 1013.55 1013.99 1014.40 1014.78 1015.15 1015.51 1015.88 1016.26 1016.67 1017.11 1017.57 1018.05 1018.53 1019.00 1019.44 1019.83 1020.17 1020.45 1020.69 1020.88 1021.03 1021.17 1021.32 1021.48 1021.66 1021.88 1022.12 1022.38 1022.64 1022.89 1023.12
1008.32 1008.61 1008.97 1009.40 1009.86 1010.35 1010.85 1011.36 1011.85 1012.32 1012.78 1013.21 1013.61 1014.00 1014.37 1014.73 1015.10 1015.47 1015.87 1016.28 1016.73 1017.20 1017.68 1018.18 1018.67 1019.13 1019.56 1019.95 1020.27 1020.54 1020.75 1020.92 1021.07 1021.19 1021.32 1021.46 1021.62 1021.81 1022.01 1022.24 1022.46 1022.67 1022.86
1009.16 1009.43 1009.77 1010.15 1010.57 1011.00 1011.43 1011.85 1012.26 1012.65 1013.03 1013.39 1013.74 1014.08 1014.43 1014.78 1015.16 1015.55 1015.96 1016.41 1016.88 1017.36 1017.85 1018.34 1018.82 1019.26 1019.67 1020.02 1020.32 1020.56 1020.76 1020.92 1021.05 1021.17 1021.29 1021.42 1021.57 1021.73 1021.92 1022.10 1022.28 1022.45 1022.59
1009.98 1010.24 1010.55 1010.90 1011.26 1011.64 1012.00 1012.35 1012.68 1013.00 1013.31 1013.62 1013.92 1014.24 1014.58 1014.93 1015.32 1015.73 1016.16 1016.62 1017.09 1017.56 1018.04 1018.50 1018.93 1019.33 1019.69 1020.00 1020.26 1020.48 1020.66 1020.81 1020.94 1021.07 1021.20 1021.33 1021.48 1021.63 1021.79 1021.94 1022.08 1022.20 1022.29
1010.74 1010.98 1011.27 1011.58 1011.91 1012.23 1012.53 1012.82 1013.09 1013.36 1013.62 1013.89 1014.17 1014.47 1014.81 1015.17 1015.56 1015.98 1016.42 1016.87 1017.32 1017.77 1018.20 1018.61 1018.99 1019.32 1019.62 1019.88 1020.10 1020.29 1020.46 1020.61 1020.75 1020.89 1021.04 1021.18 1021.33 1021.48 1021.61 1021.74 1021.85 1021.92 1021.96
1011.40 1011.63 1011.90 1012.18 1012.47 1012.75 1013.01 1013.25 1013.48 1013.71 1013.94 1014.19 1014.46 1014.76 1015.09 1015.46 1015.86 1016.27 1016.70 1017.13 1017.55 1017.95 1018.33 1018.67 1018.98 1019.25 1019.49 1019.70 1019.88 1020.05 1020.21 1020.36 1020.52 1020.67 1020.83 1020.99 1021.14 1021.28 1021.40 1021.50 1021.57 1021.60 1021.60
1011.98 1012.19 1012.43 1012.69 1012.95 1013.19 1013.42 1013.64 1013.84 1014.05 1014.27 1014.51 1014.78 1015.08 1015.42 1015.79 1016.18 1016.58 1016.99 1017.38 1017.75 1018.10 1018.41 1018.69 1018.93 1019.14 1019.32 1019.49 1019.65 1019.81 1019.96 1020.12 1020.28 1020.45 1020.62 1020.78 1020.93 1021.06 1021.16 1021.23 1021.26 1021.25 1021.21
1012.46 1012.65 1012.87 1013.11 1013.34 1013.56 1013.78 1013.98 1014.17 1014.38 1014.59 1014.84 1015.11 1015.42 1015.76 1016.12 1016.49 1016.87 1017.24 1017.60 1017.92 1018.21 1018.46 1018.68 1018.87 1019.03 1019.18 1019.32 1019.46 1019.60 1019.76 1019.92 1020.09 1020.26 1020.43 1020.58 1020.71 1020.81 1020.88 1020.91 1020.90 1020.85 1020.77
1012.88 1013.04 1013.24 1013.46 1013.67 1013.88 1014.08 1014.28 1014.47 1014.68 1014.90 1015.15 1015.43 1015.74 1016.07 1016.42 1016.77 1017.13 1017.46 1017.77 1018.05 1018.28 1018.49 1018.66 1018.81 1018.94 1019.07 1019.19 1019.32 1019.46 1019.61 1019.77 1019.93 1020.09 1020.24 1020.36 1020.46 1020.52 1020.54 1020.53 1020.47 1020.38 1020.26
1013.23 1013.38 1013.55 1013.75 1013.95 1014.14 1014.34 1014.54 1014.74 1014.95 1015.18 1015.44 1015.72 1016.02 1016.34 1016.67 1017.00 1017.32 1017.61 1017.88 1018.12 1018.32 1018.49 1018.64 1018.76 1018.88 1018.99 1019.10 1019.23 1019.36 1019.50 1019.64 1019.78 1019.90 1020.01 1020.09 1020.13 1020.14 1020.11 1020.04 1019.94 1019.82 1019.67
1013.52 1013.65 1013.81 1013.99 1014.17 1014.36 1014.56 1014.75 1014.96 1015.17 1015.41 1015.66 1015.94 1016.23 1016.53 1016.83 1017.13 1017.41 1017.68 1017.91 1018.11 1018.29 1018.44 1018.56 1018.68 1018.79 1018.89 1019.00 1019.11 1019.23 1019.34 1019.45 1019.55 1019.62 1019.67 1019.69 1019.67 1019.62 1019.53 1019.42 1019.28 1019.12 1018.95
1013.76 1013.87 1014.01 1014.17 1014.35 1014.53 1014.72 1014.91 1015.12 1015.33 1015.56 1015.80 1016.06 1016.33 1016.60 1016.88 1017.14 1017.39 1017.62 1017.82 1018.00 1018.16 1018.29 1018.41 1018.52 1018.62 1018.71 1018.81 1018.90 1018.99 1019.06 1019.12 1019.17 1019.18 1019.16 1019.11 1019.03 1018.92 1018.78 1018.62 1018.45 1018.27 1018.09
1013.92 1014.02 1014.15 1014.30 1014.46 1014.64 1014.82 1015.00 1015.20 1015.40 1015.61 1015.84 1016.07 1016.31 1016.55 1016.78 1017.01 1017.23 1017.43 1017.60 1017.76 1017.90 1018.02 1018.13 1018.22 1018.31 1018.39 1018.46 1018.52 1018.57 1018.60 1018.60 1018.58 1018.52 1018.44 1018.33 1018.19 1018.02 1017.85 1017.66 1017.47 1017.28 1017.10
1014.00 1014.09 1014.22 1014.36 1014.51 1014.67 1014.84 1015.01 1015.18 1015.36 1015.55 1015.75 1015.94 1016.14 1016.35 1016.54 1016.73 1016.91 1017.08 1017.23 1017.37 1017.49 1017.60 1017.69 1017.77 1017.84 1017.90 1017.93 1017.95 1017.95 1017.92 1017.86 1017.78 1017.66 1017.52 1017.35 1017.16 1016.97 1016.77 1016.57 1016.38 1016.19 1016.02
Thickness
5518 5517 5515 5513 5512 5510 5510 5510 5509 5508 5507 5506 5506 5506 5505 5506 5506 5507 5507 5507 5507 5507 5507 5506 5506 5505 5504 5503 5501 5499 5496 5493 5491 5493 5491 5489 5487 5484 5483 5481 5480 5479 5478
5510 5508 5507 5505 5504 5503 5502 5501 5501 5500 5499 5498 5498 5497 5497 5497 5497 5497 5497 5497 5497 5496 5496 5496 5494 5494 5493 5491 5489 5487 5484 5481 5478 5478 5479 5476 5474 5471 5469 5467 5465 5464 5464
5502 5500 5499 5497 5496 5495 5495 5494 5493 5492 5491 5490 5489 5489 5488 5487 5487 5487 5487 5486 5486 5486 5485 5484 5484 5483 5482 5479 5477 5475 5472 5470 5467 5464 5465 5463 5460 5457 5454 5453 5452 5451 5450
5493 5492 5490 5489 5488 5488 5486 5485 5484 5483 5482 5481 5480 5480 5479 5478 5478 5477 5476 5476 5475 5475 5474 5474 5473 5472 5470 5468 5466 5463 5460 5457 5454 5451 5450 5449 5447 5444 5440 5439 5439 5438 5437
5484 5483 5482 5480 5480 5479 5477 5476 5474 5473 5473 5472 5471 5470 5470 5469 5469 5468 5467 5466 5465 5465 5464 5463 5462 5461 5460 5457 5455 5451 5448 5444 5441 5438 5436 5435 5434 5431 5429 5427 5426 5425 5425
5475 5474 5473 5471 5470 5468 5467 5466 5465 5464 5463 5462 5461 5461 5460 5460 5460 5459 5458 5457 5455 5454 5453 5452 5451 5450 5449 5446 5443 5441 5438 5434 5431 5427 5425 5424 5423 5421 5419 5417 5414 5413 5414
5466 5465 5463 5462 5460 5458 5457 5456 5454 5454 5453 5452 5451 5450 5450 5450 5450 5450 5448 5446 5445 5444 5442 5441 5440 5439 5436 5433 5432 5430 5427 5424 5422 5419 5416 5415 5414 5412 5409 5407 5404 5402 5403
5457 5456 5454 5453 5451 5449 5447 5446 5445 5444 5443 5442 5441 5440 5440 5440 5440 5439 5438 5436 5434 5433 5431 5430 5429 5427 5425 5422 5420 5417 5415 5413 5411 5410 5408 5407 5406 5403 5400 5398 5396 5393 5392
5447 5446 5445 5444 5442 5440 5438 5437 5436 5434 5433 5432 5432 5431 5430 5430 5429 5428 5427 5425 5423 5422 5421 5420 5418 5416 5415 5412 5409 5406 5404 5403 5402 5401 5400 5398 5397 5395 5392 5389 5386 5383 5383
5437 5436 5435 5434 5432 5430 5429 5427 5426 5425 5424 5423 5422 5421 5420 5419 5419 5418 5417 5415 5414 5413 5411 5410 5408 5406 5405 5402 5398 5396 5394 5394 5392 5392 5390 5389 5387 5385 5383 5380 5377 5374 5372
5428 5427 5426 5424 5423 5421 5419 5417 5415 5415 5414 5412 5412 5411 5410 5410 5410 5408 5407 5405 5404 5403 5401 5400 5398 5397 5395 5393 5391 5388 5387 5385 5383 5382 5380 5378 5377 5375 5373 5371 5368 5366 5364
5418 5417 5416 5414 5413 5411 5409 5407 5406 5404 5403 5402 5401 5401 5400 5400 5399 5399 5398 5397 5395 5394 5393 5391 5390 5388 5386 5384 5382 5381 5379 5377 5374 5371 5370 5368 5367 5366 5364 5362 5360 5359 5357
5407 5406 5405 5404 5402 5401 5399 5398 5396 5395 5393 5392 5392 5391 5390 5390 5389 5390 5389 5388 5387 5385 5384 5383 5381 5379 5377 5375 5372 5371 5369 5366 5364 5361 5359 5359 5358 5357 5355 5354 5352 5350 5350
5396 5395 5394 5393 5392 5391 5389 5388 5387 5385 5384 5383 5383 5382 5381 5380 5380 5380 5379 5378 5377 5375 5373 5372 5371 5369 5367 5365 5362 5360 5358 5356 5355 5353 5351 5350 5349 5348 5346 5344 5343 5342 5341
5386 5385 5384 5383 5381 5380 5379 5378 5378 5377 5376 5375 5375 5373 5372 5372 5373 5372 5371 5369 5368 5366 5364 5361 5359 5357 5356 5354 5352 5350 5348 5347 5345 5343 5342 5341 5340 5339 5338 5336 5334 5333 5332
5375 5374 5374 5373 5371 5370 5369 5369 5369 5369 5368 5368 5367 5366 5366 5365 5365 5364 5363 5361 5359 5357 5354 5351 5350 5348 5346 5345 5343 5341 5339 5337 5336 5334 5332 5331 5331 5330 5329 5328 5326 5325 5325
5364 5363 5363 5362 5361 5360 5359 5359 5359 5359 5359 5359 5359 5358 5357 5357 5356 5355 5353 5352 5349 5347 5343 5342 5340 5339 5337 5335 5334 5332 5331 5329 5327 5325 5324 5323 5322 5322 5321 5320 5320 5319 5319
5353 5353 5353 5352 5351 5350 5350 5349 5349 5349 5349 5349 5349 5349 5348 5348 5346 5345 5343 5340 5338 5336 5333 5332 5331 5330 5328 5326 5325 5324 5323 5321 5319 5317 5316 5315 5314 5314 5313 5313 5313 5312 5312
5342 5342 5342 5342 5342 5341 5341 5340 5339 5339 5339 5339 5339 5339 5339 5338 5336 5334 5332 5329 5327 5326 5324 5323 5322 5321 5319 5318 5317 5315 5314 5312 5310 5309 5308 5307 5307 5306 5307 5307 5307 5307 5306
5332 5333 5334 5333 5333 5332 5331 5330 5330 5329 5329 5329 5329 5329 5328 5326 5325 5323 5321 5319 5318 5317 5315 5314 5313 5312 5310 5309 5308 5306 5305 5303 5302 5301 5300 5300 5300 5300 5301 5301 5301 5300 5301
5322 5323 5324 5323 5323 5322 5321 5321 5320 5320 5320 5320 5320 5319 5319 5318 5316 5315 5313 5312 5310 5309 5308 5306 5305 5304 5302 5301 5300 5298 5297 5296 5294 5294 5293 5293 5293 5294 5295 5295 5295 5295 5295
5312 5313 5313 5313 5313 5312 5312 5311 5311 5311 5311 5310 5310 5310 5311 5309 5307 5307 5306 5304 5303 5301 5300 5299 5297 5296 5295 5293 5292 5291 5290 5289 5288 5287 5287 5287 5287 5288 5289 5289 5289 5289 5289
5302 5302 5303 5303 5303 5304 5303 5302 5302 5302 5302 5302 5302 5302 5302 5300 5299 5299 5298 5297 5296 5295 5293 5291 5290 5289 5288 5287 5286 5284 5284 5283 5283 5282 5282 5282 5282 5283 5283 5283 5283 5284 5284
5291 5292 5292 5292 5293 5292 5293 5292 5292 5292 5293 5293 5293 5293 5293 5292 5292 5291 5291 5290 5289 5288 5287 5285 5284 5283 5282 5281 5280 5280 5279 5279 5279 5278 5278 5278 5278 5278 5278 5278 5279 5279 5279
5281 5281 5282 5282 5282 5282 5282 5283 5283 5283 5284 5284 5284 5285 5285 5284 5284 5284 5283 5283 5282 5281 5281 5280 5279 5278 5277 5277 5276 5276 5276 5276 5276 5276 5275 5275 5275 5274 5274 5274 5274 5274 5274
5271 5271 5272 5272 5272 5272 5273 5273 5274 5274 5275 5276 5276 5276 5277 5277 5277 5277 5276 5276 5275 5275 5275 5274 5273 5273 5273 5273 5273 5273 5274 5274 5275 5275 5274 5273 5272 5272 5271 5271 5271 5270 5270